EN

Hourly Weather Abaliget

Today, 13 June, Sunday

Time Temperature Precipitation Wind Pressure Humidity
00:00 +20°C° 0.1 mm 3 mps 745 mmHg 72%
01:00 +20°C° 0.1 mm 4 mps 745 mmHg 72%
02:00 +19°C° 0.1 mm 4 mps 745 mmHg 74%
03:00 +19°C° 0.1 mm 5 mps 746 mmHg 76%
04:00 +17°C° 0.1 mm 5 mps 746 mmHg 79%
05:00 +17°C° 0.1 mm 5 mps 746 mmHg 77%
06:00 +16°C° 0.1 mm 6 mps 747 mmHg 76%
07:00 +16°C° 0.1 mm 6 mps 748 mmHg 75%
08:00 +17°C° 0 mm 7 mps 748 mmHg 65%
09:00 +18°C° 0 mm 8 mps 748 mmHg 55%
10:00 +21°C° 0 mm 8 mps 749 mmHg 46%
11:00 +21°C° 0 mm 8 mps 749 mmHg 44%
12:00 +22°C° 0 mm 8 mps 749 mmHg 41%
13:00 +22°C° 0 mm 8 mps 749 mmHg 39%
14:00 +22°C° 0 mm 8 mps 749 mmHg 41%
15:00 +22°C° 0 mm 7 mps 749 mmHg 42%
16:00 +22°C° 0 mm 7 mps 749 mmHg 43%
17:00 +20°C° 0 mm 6 mps 749 mmHg 48%
18:00 +19°C° 0 mm 5 mps 749 mmHg 52%
19:00 +17°C° 0 mm 4 mps 749 mmHg 56%
20:00 +15°C° 0 mm 4 mps 750 mmHg 58%
21:00 +14°C° 0 mm 4 mps 750 mmHg 60%
22:00 +13°C° 0 mm 3 mps 750 mmHg 63%
23:00 +12°C° 0 mm 3 mps 750 mmHg 66%

Tomorrow, 14 June, Monday

Time Temperature Precipitation Wind Pressure Humidity
00:00 +12°C° 0 mm 3 mps 750 mmHg 70%
01:00 +11°C° 0 mm 3 mps 751 mmHg 73%
02:00 +10°C° 0 mm 3 mps 750 mmHg 77%
03:00 +9°C° 0 mm 3 mps 750 mmHg 81%
04:00 +9°C° 0 mm 3 mps 750 mmHg 84%
05:00 +10°C° 0 mm 3 mps 750 mmHg 78%
06:00 +12°C° 0 mm 4 mps 751 mmHg 72%
07:00 +14°C° 0 mm 4 mps 751 mmHg 65%
08:00 +15°C° 0 mm 4 mps 751 mmHg 60%
09:00 +17°C° 0 mm 4 mps 751 mmHg 54%
10:00 +19°C° 0 mm 4 mps 750 mmHg 49%
11:00 +20°C° 0 mm 4 mps 750 mmHg 46%
12:00 +21°C° 0 mm 3 mps 750 mmHg 44%
13:00 +21°C° 0 mm 3 mps 749 mmHg 41%
14:00 +22°C° 0 mm 3 mps 749 mmHg 41%
15:00 +22°C° 0 mm 3 mps 748 mmHg 41%
16:00 +22°C° 0 mm 3 mps 748 mmHg 40%
17:00 +20°C° 0 mm 3 mps 748 mmHg 47%
18:00 +19°C° 0 mm 2 mps 748 mmHg 55%
19:00 +18°C° 0 mm 1 mps 748 mmHg 62%
20:00 +16°C° 0 mm 1 mps 748 mmHg 65%
21:00 +15°C° 0 mm 1 mps 749 mmHg 68%
22:00 +13°C° 0 mm 0 mps 749 mmHg 71%
23:00 +12°C° 0 mm 0 mps 749 mmHg 71%

Day after tomorrow, 15 June, Tuesday

Time Temperature Precipitation Wind Pressure Humidity
00:00 +13°C° 0 mm 1 mps 749 mmHg 71%
01:00 +13°C° 0 mm 1 mps 749 mmHg 72%
02:00 +13°C° 0 mm 1 mps 749 mmHg 74%
03:00 +12°C° 0 mm 1 mps 749 mmHg 76%
04:00 +12°C° 0 mm 2 mps 749 mmHg 78%
05:00 +13°C° 0 mm 2 mps 749 mmHg 73%
06:00 +15°C° 0 mm 2 mps 749 mmHg 68%
07:00 +17°C° 0 mm 2 mps 749 mmHg 62%
08:00 +19°C° 0 mm 2 mps 749 mmHg 58%
09:00 +20°C° 0 mm 2 mps 749 mmHg 53%
10:00 +23°C° 0 mm 2 mps 749 mmHg 48%
11:00 +24°C° 0 mm 2 mps 749 mmHg 46%
12:00 +25°C° 0 mm 2 mps 749 mmHg 43%
13:00 +25°C° 0 mm 1 mps 748 mmHg 41%
14:00 +25°C° 0 mm 2 mps 748 mmHg 41%
15:00 +25°C° 0 mm 2 mps 748 mmHg 42%
16:00 +25°C° 0 mm 2 mps 748 mmHg 43%
17:00 +24°C° 0 mm 2 mps 748 mmHg 50%
18:00 +22°C° 0 mm 1 mps 747 mmHg 57%
19:00 +21°C° 0 mm 1 mps 747 mmHg 64%
20:00 +20°C° 0 mm 1 mps 747 mmHg 65%
21:00 +19°C° 0 mm 1 mps 748 mmHg 66%
22:00 +18°C° 0 mm 1 mps 748 mmHg 67%
23:00 +18°C° 0 mm 1 mps 748 mmHg 67%

16 June, Wednesday

Time Temperature Precipitation Wind Pressure Humidity
00:00 +16°C° 0 mm 1 mps 748 mmHg 68%
01:00 +16°C° 0 mm 1 mps 748 mmHg 69%
02:00 +16°C° 0 mm 1 mps 748 mmHg 69%
03:00 +15°C° 0 mm 1 mps 747 mmHg 69%
04:00 +14°C° 0 mm 0 mps 747 mmHg 70%
05:00 +18°C° 0 mm 1 mps 747 mmHg 66%
06:00 +19°C° 0 mm 1 mps 748 mmHg 63%
07:00 +21°C° 0 mm 1 mps 748 mmHg 59%
08:00 +22°C° 0 mm 1 mps 748 mmHg 55%
09:00 +22°C° 0 mm 0 mps 748 mmHg 51%
10:00 +23°C° 0 mm 0 mps 748 mmHg 47%
11:00 +24°C° 0 mm 0 mps 748 mmHg 45%
12:00 +27°C° 0 mm 1 mps 748 mmHg 43%
13:00 +28°C° 0 mm 1 mps 748 mmHg 41%
14:00 +28°C° 0 mm 1 mps 748 mmHg 41%
15:00 +28°C° 0 mm 1 mps 747 mmHg 41%
16:00 +28°C° 0 mm 1 mps 747 mmHg 40%
17:00 +26°C° 0 mm 1 mps 747 mmHg 48%
18:00 +25°C° 0 mm 1 mps 747 mmHg 55%
19:00 +23°C° 0 mm 1 mps 747 mmHg 62%
20:00 +22°C° 0 mm 1 mps 747 mmHg 64%
21:00 +21°C° 0 mm 1 mps 747 mmHg 67%
22:00 +20°C° 0 mm 1 mps 748 mmHg 69%
23:00 +17°C° 0 mm 0 mps 748 mmHg 71%

17 June, Thursday

Time Temperature Precipitation Wind Pressure Humidity
00:00 +17°C° 0 mm 0 mps 748 mmHg 72%
01:00 +16°C° 0 mm 0 mps 748 mmHg 73%
02:00 +16°C° 0 mm 0 mps 748 mmHg 74%
03:00 +16°C° 0 mm 0 mps 748 mmHg 75%
04:00 +16°C° 0 mm 0 mps 747 mmHg 76%
05:00 +17°C° 0 mm 0 mps 748 mmHg 71%
06:00 +21°C° 0 mm 1 mps 748 mmHg 66%
07:00 +23°C° 0 mm 1 mps 748 mmHg 62%
08:00 +24°C° 0 mm 1 mps 748 mmHg 58%
09:00 +26°C° 0 mm 1 mps 748 mmHg 54%
10:00 +27°C° 0 mm 2 mps 748 mmHg 51%
11:00 +28°C° 0 mm 2 mps 748 mmHg 48%
12:00 +29°C° 0 mm 2 mps 748 mmHg 45%
13:00 +30°C° 0 mm 3 mps 748 mmHg 43%
14:00 +29°C° 0 mm 2 mps 748 mmHg 44%
15:00 +29°C° 0 mm 2 mps 747 mmHg 45%
16:00 +29°C° 0 mm 2 mps 747 mmHg 46%
17:00 +28°C° 0 mm 2 mps 747 mmHg 52%
18:00 +26°C° 0 mm 1 mps 747 mmHg 58%
19:00 +25°C° 0 mm 1 mps 747 mmHg 64%
20:00 +24°C° 0 mm 1 mps 747 mmHg 64%
21:00 +24°C° 0 mm 1 mps 747 mmHg 64%
22:00 +23°C° 0 mm 1 mps 747 mmHg 63%
23:00 +23°C° 0 mm 1 mps 747 mmHg 64%

18 June, Friday

Time Temperature Precipitation Wind Pressure Humidity
00:00 +23°C° 0 mm 1 mps 747 mmHg 65%
01:00 +22°C° 0 mm 1 mps 747 mmHg 66%
02:00 +22°C° 0 mm 1 mps 747 mmHg 67%
03:00 +20°C° 0 mm 0 mps 747 mmHg 68%
04:00 +20°C° 0 mm 0 mps 747 mmHg 69%
05:00 +20°C° 0 mm 0 mps 747 mmHg 68%
06:00 +23°C° 0 mm 1 mps 747 mmHg 67%
07:00 +24°C° 0 mm 1 mps 747 mmHg 65%
08:00 +26°C° 0 mm 1 mps 747 mmHg 60%
09:00 +27°C° 0 mm 1 mps 747 mmHg 55%
10:00 +29°C° 0 mm 1 mps 747 mmHg 50%
11:00 +30°C° 0 mm 1 mps 747 mmHg 47%
12:00 +30°C° 0 mm 1 mps 747 mmHg 44%
13:00 +31°C° 0 mm 2 mps 747 mmHg 41%
14:00 +30°C° 0 mm 1 mps 747 mmHg 43%
15:00 +30°C° 0 mm 1 mps 746 mmHg 46%
16:00 +30°C° 0 mm 1 mps 746 mmHg 48%
17:00 +28°C° 0 mm 1 mps 746 mmHg 53%
18:00 +27°C° 0 mm 1 mps 746 mmHg 57%
19:00 +26°C° 0 mm 1 mps 746 mmHg 62%
20:00 +25°C° 0 mm 1 mps 746 mmHg 63%
21:00 +22°C° 0 mm 0 mps 746 mmHg 64%
22:00 +21°C° 0 mm 0 mps 746 mmHg 65%
23:00 +21°C° 0 mm 0 mps 746 mmHg 66%
Show more